Dewpoint
67 70 71 71 71 71 71 70 69 68 67 68 66 65 65 65 63 65 65 66 66 62 61 59 60 62 66 65 64 65 65 65 65 65 65 66 65 63 61 63 64 65 64
68 70 71 71 71 72 71 70 70 69 69 68 66 66 65 63 64 65 63 63 61 60 60 61 61 60 64 64 62 62 63 63 63 63 63 63 64 63 65 66 64 65 64
68 69 70 71 71 72 71 70 70 70 69 68 67 66 66 65 63 63 63 62 62 61 60 64 62 61 63 62 61 59 60 62 63 63 60 62 64 66 65 65 64 65 65
67 68 69 71 71 71 71 70 70 70 70 68 68 67 67 64 62 61 61 61 61 61 64 66 64 64 64 62 59 59 60 59 58 59 60 61 63 65 66 65 65 64 64
66 67 69 71 71 71 71 70 70 70 69 69 69 68 67 64 63 62 60 62 63 63 66 64 65 66 63 61 59 60 61 65 63 63 62 61 63 65 65 64 64 63 63
64 66 69 70 70 71 71 71 70 70 69 69 69 69 67 65 63 62 61 62 62 60 64 63 63 64 63 61 60 60 62 64 63 62 61 61 63 65 65 64 63 62 61
62 68 69 69 69 70 70 70 70 70 69 69 69 68 68 65 63 61 61 62 62 59 61 62 62 63 62 61 60 61 63 61 61 59 58 60 64 65 64 63 61 60 59
67 68 68 69 69 69 70 70 69 69 69 69 68 68 67 66 64 61 61 62 61 61 60 60 59 64 62 60 60 62 61 60 57 58 59 60 63 63 62 61 60 59 58
67 68 68 68 68 68 68 69 68 68 69 68 67 67 67 66 63 61 59 61 61 61 60 61 62 63 61 60 62 60 59 57 57 57 58 59 62 62 60 58 58 57 56
64 67 68 68 68 68 67 67 67 67 68 68 67 67 65 64 62 60 58 60 60 60 60 60 62 63 61 61 61 57 57 56 57 56 56 56 60 61 58 56 55 56 55
63 66 67 67 67 67 67 67 66 67 67 67 66 65 62 60 60 59 59 59 59 59 57 61 63 63 63 60 59 58 55 54 56 58 59 59 58 57 56 55 54 53 56
63 62 66 67 67 67 66 66 66 66 67 66 66 62 61 59 59 59 60 57 56 57 56 62 62 61 60 59 57 54 56 56 58 58 60 58 55 56 56 55 55 53 56
63 63 63 62 66 66 65 66 65 65 65 64 64 61 61 59 58 59 58 56 55 56 57 62 60 60 58 57 56 56 55 54 58 58 57 57 57 55 55 55 55 56 56
61 63 64 63 64 66 66 66 65 66 65 63 64 62 61 58 57 58 57 57 56 56 57 59 60 56 56 56 55 54 54 53 57 58 57 56 56 58 57 55 56 55 56
56 61 63 64 64 64 64 66 65 65 65 65 65 62 61 60 57 56 56 56 56 55 56 56 58 56 53 55 53 54 53 52 55 58 58 58 56 57 57 55 53 57 55
52 58 62 64 65 64 64 64 65 65 66 65 65 63 61 60 59 55 54 54 55 55 56 54 56 53 52 56 53 52 52 51 56 58 57 58 57 58 56 55 57 54 54
48 51 54 56 60 61 63 64 64 65 65 65 65 64 62 61 59 56 54 54 54 53 56 56 56 53 53 55 54 53 53 51 56 57 56 56 57 57 57 56 56 54 56
49 49 50 51 55 57 58 64 65 65 65 65 66 65 64 62 61 57 56 54 54 53 56 55 54 52 53 55 54 54 54 51 52 55 55 55 57 57 57 58 56 53 53
43 47 49 48 48 53 57 63 63 64 64 64 65 64 64 63 60 57 57 55 54 53 56 55 54 52 52 55 54 54 54 51 51 53 53 53 55 55 56 56 55 56 55
43 43 46 48 49 51 55 61 61 61 62 64 65 64 64 63 61 59 58 56 55 54 54 54 53 54 53 55 54 54 54 53 51 50 51 52 54 54 54 54 53 54 54
45 45 46 47 49 51 55 59 59 58 59 63 64 64 64 63 61 59 58 57 57 55 53 54 54 53 54 55 54 53 53 54 53 52 51 52 52 53 53 53 53 53 54
39 39 45 47 49 52 54 58 58 57 58 60 63 64 63 63 61 59 58 57 57 56 54 54 56 55 54 56 53 51 50 51 52 53 52 51 52 52 52 51 51 53 52
47 44 40 46 48 51 56 57 56 58 59 60 60 62 62 62 60 59 58 58 57 57 55 55 56 55 53 56 53 51 48 47 50 52 52 52 51 52 52 51 51 50 52
42 46 49 43 47 50 54 56 55 56 56 56 57 60 61 61 61 59 58 58 58 57 56 56 56 56 55 54 55 52 50 50 48 49 51 51 51 51 51 51 51 50 50
38 44 47 50 46 47 52 56 55 55 55 55 57 57 59 60 60 59 58 57 57 57 56 56 56 56 56 54 54 53 52 51 50 49 48 50 51 50 50 51 50 49 50
35 39 45 50 49 48 51 55 55 55 55 55 56 56 58 59 59 59 58 57 57 57 56 56 56 56 55 55 55 54 52 51 50 48 48 49 49 50 50 51 49 48 48
Wind_Speed
21 20 20 19 18 16 20 20 20 18 17 17 18 17 17 16 16 16 14 16 17 19 18 16 15 15 18 18 21 22 21 20 21 23 22 20 21 22 21 20 18 17 21
25 21 21 19 18 20 21 20 21 19 17 18 18 16 16 16 15 14 14 15 15 15 18 15 16 15 18 18 18 18 17 16 17 21 21 18 18 20 20 19 19 19 23
24 21 19 19 18 19 20 19 19 18 17 17 18 17 18 17 16 15 15 15 14 17 15 15 17 17 18 18 17 16 12 8 9 12 20 14 15 17 17 18 20 23 26
23 20 19 19 18 17 18 19 18 17 17 16 18 16 18 18 18 16 15 14 14 16 14 17 18 17 20 18 14 15 12 8 5 5 8 15 16 19 20 24 24 24 26
25 20 19 19 18 17 18 18 18 17 16 17 16 15 18 19 17 16 14 12 12 17 17 17 18 20 19 16 13 14 11 16 14 21 14 17 14 18 21 24 24 24 25
25 22 24 19 18 18 17 17 18 17 16 16 14 14 19 20 17 15 14 11 11 14 16 16 18 18 19 14 14 13 13 19 19 18 15 18 14 17 22 24 24 24 23
20 26 23 20 17 18 17 16 16 16 15 14 14 15 20 20 20 17 13 10 10 11 14 12 15 17 17 12 11 10 10 15 16 17 15 14 18 20 24 25 25 25 20
25 22 21 22 18 17 18 16 15 13 13 13 14 17 16 18 21 18 11 8 9 9 12 11 12 15 14 11 8 7 6 6 17 18 15 11 18 22 25 24 23 21 18
24 22 19 18 19 19 17 17 15 13 12 13 15 17 16 15 20 17 10 8 8 8 10 10 12 14 13 11 7 7 5 9 13 16 13 10 16 20 22 24 20 17 17
18 23 21 17 15 14 14 17 16 14 13 14 17 19 17 16 18 17 11 9 8 6 11 6 9 16 12 9 6 6 6 7 19 17 13 9 15 16 18 19 19 18 18
10 20 21 20 18 16 15 15 16 15 16 15 18 20 19 14 16 15 11 10 10 7 10 7 15 16 12 9 5 2 2 6 17 14 11 15 14 14 15 18 17 16 18
12 8 19 20 19 18 15 15 13 13 13 13 14 17 12 15 16 13 14 12 10 10 10 8 15 16 13 8 4 4 4 17 14 13 10 14 11 14 16 17 17 17 17
15 9 11 16 16 19 16 14 12 13 13 14 16 16 10 13 16 14 13 11 9 9 8 9 11 13 13 11 6 6 5 17 14 12 11 14 13 13 16 16 16 18 16
19 14 12 17 13 16 15 16 14 14 13 14 16 18 11 14 14 15 13 13 13 10 10 11 9 11 10 15 10 8 3 16 14 13 11 13 13 13 16 15 16 16 17
17 17 15 9 12 16 15 15 16 15 15 12 17 16 13 14 14 15 16 15 15 14 12 12 12 12 9 14 14 8 2 16 17 13 12 12 12 12 14 13 13 15 16
10 14 14 13 10 11 12 14 16 15 16 16 16 14 15 13 12 14 16 16 15 14 14 14 9 8 7 13 12 5 11 12 17 15 11 10 12 12 11 11 14 13 13
9 12 15 12 10 9 10 11 7 13 16 14 15 16 16 16 15 12 14 16 17 13 19 13 8 8 8 11 11 6 7 10 17 16 11 9 9 9 9 12 11 13 12
15 14 11 12 13 12 10 10 8 6 6 14 13 15 13 12 14 16 12 12 15 13 16 14 7 10 8 12 12 7 2 8 14 14 11 10 11 9 8 10 11 10 10
9 13 17 16 16 16 14 13 11 9 8 10 15 14 15 14 12 16 13 11 12 12 14 14 7 11 11 14 13 7 3 5 11 13 12 7 12 11 8 11 12 9 9
8 11 12 13 15 15 12 13 12 10 12 11 10 13 17 15 17 15 14 14 11 13 16 14 8 9 13 14 12 8 7 3 8 8 9 9 10 13 11 10 9 8 9
5 8 11 12 15 15 16 16 15 15 16 12 11 12 12 14 16 15 13 14 14 10 10 14 5 17 14 14 13 8 9 8 5 7 8 9 8 9 11 10 8 9 8
11 9 9 13 15 17 17 14 9 15 14 14 11 13 15 16 17 16 16 15 15 15 9 13 13 8 8 14 9 9 4 0 3 1 6 9 10 6 4 5 7 10 10
20 12 12 12 15 17 17 14 11 14 10 11 14 13 13 17 17 17 17 16 17 15 16 14 14 14 15 10 18 8 6 8 6 4 6 7 12 11 8 7 5 5 9
20 19 18 13 15 15 17 18 18 21 17 14 17 14 13 15 19 18 17 16 16 14 14 16 16 16 13 17 11 12 9 8 6 5 6 10 11 13 14 12 10 8 6
20 21 21 12 12 16 17 19 19 17 15 12 15 16 16 15 18 18 18 18 17 16 15 17 17 16 17 18 18 12 5 8 12 5 6 10 11 13 12 15 14 11 10
20 21 21 18 11 13 17 20 19 18 17 16 17 18 16 14 15 17 18 18 18 18 18 18 18 18 19 16 16 11 17 12 13 8 3 9 14 9 11 9 14 14 13
Wind_Direction
133 143 144 140 136 139 142 140 134 132 128 126 118 115 110 104 100 90 92 104 107 87 91 85 83 82 75 83 77 77 81 82 83 75 65 62 65 70 71 74 75 76 80
133 144 145 141 137 136 141 145 140 140 134 126 121 118 114 110 105 99 94 90 94 100 86 93 98 90 77 79 81 85 87 90 94 97 85 71 72 75 76 74 73 75 81
133 140 143 141 140 140 145 146 140 137 135 131 129 127 121 112 108 105 99 101 98 96 99 97 93 96 91 85 81 84 88 82 93 116 85 91 81 77 85 82 79 74 75
136 143 144 142 141 139 140 136 138 137 137 135 134 135 127 117 112 106 103 103 99 97 99 102 97 102 101 90 80 75 60 32 15 0 101 91 78 74 81 85 78 75 72
134 150 146 145 140 135 137 139 140 140 141 140 141 137 131 119 111 107 105 96 89 99 97 97 97 102 97 88 81 68 46 39 91 81 79 79 71 73 85 84 78 74 72
143 146 146 149 144 137 136 138 139 140 142 146 143 134 131 122 113 104 100 80 92 107 103 97 95 100 94 84 69 60 35 71 74 79 76 79 73 79 88 84 80 73 67
144 137 149 151 148 143 143 142 142 142 141 143 137 136 139 130 120 105 95 85 86 109 100 99 102 98 96 95 79 66 79 82 87 73 69 71 77 81 81 76 72 71 68
119 134 148 151 151 148 146 147 146 142 145 146 142 145 139 133 110 107 106 101 93 108 120 113 107 103 100 101 95 99 72 48 99 93 75 69 80 78 76 72 69 69 67
132 135 150 155 156 159 154 155 156 156 153 153 146 138 126 122 117 113 124 119 110 108 119 112 121 114 102 102 108 109 66 22 89 94 85 74 84 83 80 74 69 68 68
125 138 150 157 156 159 162 166 168 166 161 151 137 128 125 118 113 119 138 138 121 119 124 119 138 113 110 115 108 126 37 48 88 86 77 81 91 85 80 75 73 72 73
140 147 155 157 162 165 168 175 173 168 164 147 137 138 134 127 115 126 153 141 136 131 128 116 117 108 120 129 134 83 358 75 91 89 96 89 85 93 90 84 83 79 73
151 169 149 159 164 164 168 170 173 169 164 152 144 156 172 144 139 137 140 139 143 147 140 122 122 127 123 124 139 233 0 96 100 102 100 92 93 92 95 90 88 84 79
162 186 147 159 162 164 165 158 173 169 173 174 160 173 191 127 123 125 140 142 148 159 144 127 134 154 146 140 170 260 318 103 103 98 103 100 97 102 101 98 89 90 78
171 174 182 162 169 166 152 161 178 166 179 179 165 183 166 142 147 141 154 160 157 186 171 158 175 197 194 151 157 250 320 110 108 107 98 110 109 103 101 101 97 91 88
169 171 172 178 172 166 169 165 172 174 182 181 169 193 155 155 162 152 166 169 155 185 172 185 192 209 187 157 148 223 185 107 113 107 102 119 115 112 113 109 107 97 96
156 152 161 179 184 180 183 175 170 173 175 181 176 192 162 157 170 161 165 167 160 187 160 185 214 192 154 147 145 211 98 92 111 115 112 119 121 124 112 112 111 101 103
198 172 173 175 185 189 183 189 189 163 165 171 176 190 176 167 178 176 168 164 161 181 156 185 226 165 130 130 135 135 76 114 116 120 124 110 107 121 123 122 110 108 103
186 200 186 172 184 198 192 171 171 187 154 162 171 185 191 173 175 169 172 159 159 165 159 183 200 154 158 132 117 123 42 126 125 130 134 141 120 101 98 113 113 118 111
210 196 200 199 200 199 191 168 177 196 198 201 174 181 193 172 160 157 162 161 157 164 157 186 184 163 158 127 123 127 174 137 121 130 151 151 133 124 118 112 106 113 114
212 222 209 203 199 197 193 163 167 184 207 208 197 176 179 176 165 160 163 167 173 165 160 185 179 163 150 138 133 100 59 127 126 129 156 155 135 140 143 142 129 124 122
208 202 206 205 205 191 191 167 171 190 206 201 190 177 172 162 158 159 166 167 165 176 169 171 166 159 148 138 118 91 57 38 52 164 141 137 139 155 169 168 158 143 142
314 237 221 210 203 196 190 178 174 181 200 197 174 172 176 168 161 158 161 171 171 167 165 165 157 155 164 156 146 130 151 278 294 200 165 182 159 162 167 171 161 172 162
353 319 236 228 211 200 189 170 154 159 149 178 193 181 186 167 159 163 170 175 178 168 172 171 163 179 183 169 161 149 153 211 155 228 204 196 180 175 190 196 198 177 181
346 339 330 242 217 209 193 176 175 177 178 197 194 187 178 172 165 169 171 177 179 178 176 176 175 177 172 194 187 209 167 150 164 175 225 220 197 183 192 195 198 208 201
357 347 338 302 254 212 205 182 183 181 195 177 178 182 187 189 174 173 176 181 180 182 186 181 179 186 188 193 202 192 182 171 164 146 182 201 223 207 214 192 195 202 205
4 355 345 331 267 231 208 181 189 191 185 177 181 189 180 180 172 176 178 180 183 189 188 190 191 195 194 200 201 194 198 184 191 193 140 179 197 204 205 204 193 198 203